2024/02/12 00:00:00, 2.6,-0.7
2024/02/12 00:10:00,12.7,-0.2
2024/02/12 00:20:00, 2.5,-0.1
2024/02/12 00:30:00, 2.3, 0.2
2024/02/12 00:40:00, 2.4,-0.1
2024/02/12 00:50:00, 2.3,-0.1
2024/02/12 01:00:00,43.1, 0.2
2024/02/12 01:10:00,83.9,-0.1
2024/02/12 01:20:00,84.4, 0.0
2024/02/12 01:30:00,84.6,-0.1
2024/02/12 01:40:00,35.4, 0.4
2024/02/12 01:50:00, 2.7, 0.0
2024/02/12 02:00:00,59.5,-0.1
2024/02/12 02:10:00,84.1,-0.2
2024/02/12 02:20:00,84.5,-0.2
2024/02/12 02:30:00,84.6,-0.3
2024/02/12 02:40:00,84.6,-0.1
2024/02/12 02:50:00,84.9, 0.0
2024/02/12 03:00:00,85.3,-0.1
2024/02/12 03:10:00,85.0,-0.1
2024/02/12 03:20:00,85.7, 0.2
2024/02/12 03:30:00,86.8, 0.0
2024/02/12 03:40:00,86.5, 0.0
2024/02/12 03:50:00,87.1, 0.2
2024/02/12 04:00:00,87.5, 0.2
2024/02/12 04:10:00,88.1, 0.2
2024/02/12 04:20:00,89.1, 0.4
2024/02/12 04:30:00,88.5, 0.2
2024/02/12 04:40:00,88.2, 0.0
2024/02/12 04:50:00,90.2, 0.0
2024/02/12 05:00:00,150.5, 0.4
2024/02/12 05:10:00,147.7, 0.4
2024/02/12 05:20:00,86.8, 0.1
2024/02/12 05:30:00,89.2, 0.0
2024/02/12 05:40:00,89.7, 0.1
2024/02/12 05:50:00,89.1, 0.1
2024/02/12 06:00:00,88.5, 0.0
2024/02/12 06:10:00,87.9, 1.2
2024/02/12 06:20:00,90.0, 0.3
2024/02/12 06:30:00,90.6, 0.3
2024/02/12 06:40:00,---, 0.3
2024/02/12 06:50:00,---, 0.2
2024/02/12 07:00:00,125.1, 0.0
2024/02/12 07:10:00,125.6, 0.4
2024/02/12 07:20:00, 0.0, 0.3
2024/02/12 07:30:00, 0.0, 0.3
2024/02/12 07:40:00, 0.0, 0.1
2024/02/12 07:50:00, 0.0, 0.1
2024/02/12 08:00:00,---, 0.2
2024/02/12 08:10:00,92.4, 0.4
2024/02/12 08:20:00,91.2, 0.6
2024/02/12 08:30:00,88.4, 0.7
2024/02/12 08:40:00,89.0, 0.7
2024/02/12 08:50:00,87.9, 0.5
2024/02/12 09:00:00,88.1, 0.8
2024/02/12 09:10:00, 0.0, 1.4
2024/02/12 09:20:00,86.5, 1.8
2024/02/12 09:30:00,88.6, 1.8
2024/02/12 09:40:00,49.8, 8.3
2024/02/12 09:50:00,---, 6.3
2024/02/12 10:00:00, 0.0, 5.3
2024/02/12 10:10:00, 0.0, 3.2
2024/02/12 10:20:00,---, 3.7
2024/02/12 10:30:00, 0.0, 3.9
2024/02/12 10:40:00,---, 7.9
2024/02/12 10:50:00,---, 7.9
2024/02/12 11:00:00, 0.0, 7.6
2024/02/12 11:10:00, 0.0, 7.2
2024/02/12 11:20:00, 0.0, 8.2
2024/02/12 11:30:00,---, 7.8
2024/02/12 11:40:00, 0.2, 8.5
2024/02/12 11:50:00, 0.3, 7.6
2024/02/12 12:00:00, 0.3, 7.3
2024/02/12 12:10:00, 0.0, 7.1
2024/02/12 12:20:00, 0.0, 6.4
2024/02/12 12:30:00, 0.0, 6.1
2024/02/12 12:40:00, 0.0, 5.3
2024/02/12 12:50:00, 0.0, 6.6
2024/02/12 13:00:00, 0.0, 7.7
2024/02/12 13:10:00, 0.0, 8.4
2024/02/12 13:20:00, 0.0, 8.4
2024/02/12 13:30:00, 0.0, 7.7
2024/02/12 13:40:00, 0.0, 7.3
2024/02/12 13:50:00, 0.0, 6.8
2024/02/12 14:00:00, 0.0, 6.7
2024/02/12 14:10:00, 0.0, 6.3
2024/02/12 14:20:00, 0.0, 6.6
2024/02/12 14:30:00, 0.0, 7.9
2024/02/12 14:40:00, 0.0, 7.8
2024/02/12 14:50:00, 0.0, 7.9
2024/02/12 15:00:00, 0.0, 7.3
2024/02/12 15:10:00, 0.0, 7.2
2024/02/12 15:20:00, 0.0, 7.9
2024/02/12 15:30:00, 0.0, 6.9
2024/02/12 15:40:00, 0.0, 6.4
2024/02/12 15:50:00, 0.0, 6.1
2024/02/12 16:00:00, 0.0, 6.6
2024/02/12 16:10:00, 0.0, 6.9
2024/02/12 16:20:00, 0.0, 6.5
2024/02/12 16:30:00, 0.0, 6.3
2024/02/12 16:40:00, 0.0, 5.5
2024/02/12 16:50:00, 2.4, 5.1
2024/02/12 17:00:00, 3.0, 4.9
2024/02/12 17:10:00, 3.1, 4.4
2024/02/12 17:20:00, 2.9, 3.9
2024/02/12 17:30:00, 2.7, 3.2
2024/02/12 17:40:00, 2.7, 2.8
2024/02/12 17:50:00, 2.8, 2.8
2024/02/12 18:00:00, 2.8, 2.3
2024/02/12 18:10:00, 3.0, 2.0
2024/02/12 18:20:00, 3.1, 1.8
2024/02/12 18:30:00,---, 1.7
2024/02/12 18:40:00, 3.0, 1.5
2024/02/12 18:50:00, 3.0, 1.4
2024/02/12 19:00:00,51.6, 1.1
2024/02/12 19:10:00,84.2, 0.9
2024/02/12 19:20:00,84.3, 0.7
2024/02/12 19:30:00,84.1, 0.7
2024/02/12 19:40:00,84.6, 0.7
2024/02/12 19:50:00,85.0, 0.4
2024/02/12 20:00:00,85.2, 0.4
2024/02/12 20:10:00,85.4, 0.4
2024/02/12 20:20:00,84.1, 0.4
2024/02/12 20:30:00,43.2, 0.2
2024/02/12 20:40:00,35.0, 0.3
2024/02/12 20:50:00,59.3, 0.3
2024/02/12 21:00:00, 2.3, 0.3
2024/02/12 21:10:00, 2.3, 0.0
2024/02/12 21:20:00, 2.4,-0.1
2024/02/12 21:30:00, 2.1,-0.1
2024/02/12 21:40:00, 1.4, 0.0
2024/02/12 21:50:00, 0.6, 0.0
2024/02/12 22:00:00, 0.4, 0.0
2024/02/12 22:10:00, 0.7,-0.6
2024/02/12 22:20:00, 1.2,-0.7
2024/02/12 22:30:00, 1.1,-0.7
2024/02/12 22:40:00, 1.2,-0.9
2024/02/12 22:50:00, 1.2,-0.9
2024/02/12 23:00:00, 1.5,-0.5
2024/02/12 23:10:00, 1.5,-1.0
2024/02/12 23:20:00, 1.7,-0.9
2024/02/12 23:30:00, 1.6,-1.1
2024/02/12 23:40:00, 1.7,-1.2
2024/02/12 23:50:00,---,-1.1
